User: anonymous
Location: Caltech
(34.1382°N, 118.1253°W)
Time: 15:20:21
(UTC-07:00)
Language:

ITAMSAT 1 - Orbit

View from above orbital plane
View from above orbital plane
View from above satellite
View from above satellite

Ground track
Ground track

The orbit data is extracted from the following two-line orbital elements,

1 22826U 93061D   14273.40669915  .00000252  00000-0  11457-3 0  5420
2 22826 098.6667 219.1776 0008477 349.3310 010.7691 14.30056229 95950
Epoch (UTC): 30 September 2014 09:45:38
Eccentricity: 0.0008477
inclination: 98.6667°
perigee height: 785 km
apogee height: 797 km
right ascension of ascending node: 219.1776°
argument of perigee: 349.3310°
revolutions per day: 14.30056229
mean anomaly at epoch: 10.7691°
orbit number at epoch: 9595

The dashed part of the orbit path shows where the satellite is in the earth's shadow,  

DLR